Hourly Data Report for September 03, 2017

All times are specified in Local Standard Time (LST). Add 1 hour to adjust for Daylight Saving Time where and when it is observed.

QIKIQTARJUAQ A
NUNAVUT

67°32'48.000" N
64°01'54.000" W
5.50 m
2400577
YVM

Download Data

Hourly Data (September 2017)
Hourly Data Report for September 3, 2017
Temp Definition
°C
Dew Point Temp Definition
°C
Rel Hum Definition
%
Wind Dir Definition
10's deg

Wind Spd Definition
km/h
Visibility Definition
km
Stn Press Definition
kPa
Hmdx Definition


Wind Chill Definition


Weather Definition


TIME
00:00 Legend Double Dagger 2.6 -0.5 80   0 16.1 101.04     LegendNANA
01:00 Legend Double Dagger 2.4 0.3 86   0 16.1 101.04     LegendNANA
02:00 Legend Double Dagger 2.2 0.3 87 36 8 16.1 101.07     LegendNANA
03:00 Legend Double Dagger 1.9 0.6 91 35 5 16.1 101.08     LegendNANA
04:00 Legend Double Dagger 2.0 -0.1 86 LegendMM 4 16.1 101.09     LegendNANA
05:00 Legend Double Dagger 2.1 0.0 86 7 5 16.1 101.11     LegendNANA
06:00 Legend Double Dagger 2.4 -0.5 81 5 4 16.1 101.12     LegendNANA
07:00 Legend Double Dagger 2.6 -0.1 82   0 16.1 101.13     LegendNANA
08:00 Legend Double Dagger 2.9 0.5 84 31 4 16.1 101.13     LegendNANA
09:00 Legend Double Dagger 3.0 0.5 84 35 5 16.1 101.11     LegendNANA
10:00 Legend Double Dagger 3.0 0.2 82 36 13 16.1 101.09     LegendNANA
11:00 Legend Double Dagger 2.7 0.1 83 36 13 16.1 101.06     LegendNANA
12:00 Legend Double Dagger 3.3 0.2 80 33 8 16.1 101.03     LegendNANA
13:00 Legend Double Dagger 4.1 -1.8 65 33 9 16.1 101.02     LegendNANA
14:00 Legend Double Dagger 4.0 -1.5 67 33 8 16.1 101.02     LegendNANA
15:00 Legend Double Dagger 3.9 -1.8 67 36 9 16.1 101.03     LegendNANA
16:00 Legend Double Dagger 3.7 -1.2 70 28 11 16.1 101.05     LegendNANA
17:00 Legend Double Dagger 3.8 -2.2 65 15 11 16.1 101.04     LegendNANA
18:00 Legend Double Dagger 3.4 -2.9 63 13 18 16.1 101.03     LegendNANA
19:00 Legend Double Dagger 3.0 -3.2 64 13 17 16.1 101.06     LegendNANA
20:00 Legend Double Dagger 2.3 -2.4 71 14 18 16.1 101.02     LegendNANA
21:00 Legend Double Dagger 2.7 -2.9 67 LegendMM 4 16.1 101.02     LegendNANA
22:00 Legend Double Dagger 1.9 -2.3 74 LegendMM 5 16.1 101.00     LegendNANA
23:00 Legend Double Dagger 2.1 -2.8 70   0 16.1 100.97     LegendNANA

Notes on Data Quality.

Legend

  • E = Estimated
  • M = Missing
  • NA = Not Available
  • ‡ = Partner data that is not subject to review by the National Climate Archives
Date modified: